Nashua, NH

11:12 PM EDT on April 23, 2018 (GMT -0400)
Boire

Weather History for KASH - July, 2012

Change the Weather History Date:

Tuesday, July 24, 2012

  Actual Average Record
Temperature  
Mean Temperature 80 °F -  
Max Temperature 89 °F 82 °F 100 °F (1952)
Min Temperature 70 °F 58 °F 47 °F (1985)
Cooling Degree Days 14    
Growing Degree Days 30 (Base 50)    
Moisture  
Dew Point 63 °F    
Average Humidity 60    
Maximum Humidity 91    
Minimum Humidity 35    
Precipitation  
Precipitation 0.02 in - - ()
Sea Level Pressure  
Sea Level Pressure 29.63 in    
Wind  
Wind Speed 6 mph (NNW)    
Max Wind Speed 20 mph    
Max Gust Speed 31 mph    
Visibility 10 miles    
Events Rain , Thunderstorm    
Averages and records for this station are not official NWS values.
T = Trace of Precipitation, MM = Missing Value Source: NWS Daily Summary

Daily Weather History Graph

Daily Weather History Graph

Search for Another Location

Airport or City:

Astronomy

Jul. 24, 2012 Rise Set
Actual Time 5:29 AM EDT 8:14 PM EDT
Civil Twilight 4:56 AM EDT 8:47 PM EDT
Nautical Twilight 4:15 AM EDT 9:28 PM EDT
Astronomical Twilight 3:27 AM EDT 10:16 PM EDT
Moon 11:34 AM EDT 10:50 PM EDT
Length of Visible Light 15h 50m
Length of Day
14h 44m
Waxing Crescent, 31% of the Moon is Illuminated
Jul 24
Waxing Crescent
Jul 26
First Quarter
Aug 1
Full
Aug 9
Last Quarter
Aug 17
New

Hourly Weather History & Observations

Time (EDT) Temp. Heat Index Dew Point Humidity Pressure Visibility Wind Dir Wind Speed Gust Speed Precip Events Conditions
12:51 AM 74.8 °F - 70.0 °F 85% 29.75 in 10.0 mi Calm Calm - N/A   Clear
1:51 AM 74.8 °F - 70.0 °F 85% 29.71 in 10.0 mi Variable 4.6 mph - N/A   Clear
2:51 AM 73.9 °F - 70.0 °F 87% 29.71 in 9.0 mi Calm Calm - N/A   Partly Cloudy
3:51 AM 74.8 °F - 68.9 °F 82% 29.72 in 10.0 mi Variable 4.6 mph - 0.00 in Rain Light Rain
4:51 AM 70.9 °F - 68.0 °F 91% 29.68 in 10.0 mi Variable 4.6 mph - 0.02 in Rain Light Rain
5:51 AM 70.0 °F - 65.8 °F 87% 29.64 in 10.0 mi Calm Calm - 0.00 in   Clear
6:51 AM 70.0 °F - 65.8 °F 87% 29.63 in 10.0 mi Variable 3.5 mph - N/A   Clear
7:51 AM 72.9 °F - 66.9 °F 82% 29.62 in 10.0 mi Variable 4.6 mph - N/A   Clear
8:51 AM 77.9 °F - 68.9 °F 74% 29.61 in 10.0 mi Variable 5.8 mph - N/A   Clear
9:51 AM 81.9 °F 85.2 °F 68.9 °F 65% 29.60 in 10.0 mi Variable 5.8 mph - N/A   Clear
10:51 AM 84.9 °F 88.2 °F 68.0 °F 57% 29.59 in 10.0 mi WNW 12.7 mph - N/A   Partly Cloudy
11:51 AM 86.0 °F 88.8 °F 66.9 °F 53% 29.58 in 10.0 mi Variable 6.9 mph - N/A   Mostly Cloudy
12:51 PM 88.9 °F 91.0 °F 65.8 °F 46% 29.56 in 10.0 mi WNW 11.5 mph - N/A   Scattered Clouds
1:51 PM 88.9 °F 90.0 °F 63.9 °F 43% 29.53 in 10.0 mi WNW 11.5 mph - N/A   Partly Cloudy
2:03 PM 89.6 °F 91.1 °F 64.4 °F 43% 29.53 in 10.0 mi WNW 13.8 mph - N/A Thunderstorm Partly Cloudy
2:51 PM 82.9 °F 85.0 °F 65.8 °F 56% 29.56 in 10.0 mi NW 15.0 mph 19.6 mph 0.00 in Thunderstorm Thunderstorm
3:51 PM 86.0 °F 89.4 °F 68.0 °F 55% 29.56 in 10.0 mi West 5.8 mph - N/A   Scattered Clouds
4:51 PM 84.9 °F 85.0 °F 61.0 °F 44% 29.57 in 10.0 mi North 10.4 mph - N/A   Mostly Cloudy
5:51 PM 86.9 °F 85.5 °F 55.9 °F 35% 29.57 in 10.0 mi NNW 13.8 mph - N/A   Scattered Clouds
6:51 PM 83.8 °F 82.8 °F 55.9 °F 38% 29.59 in 10.0 mi NNW 8.1 mph - N/A   Partly Cloudy
7:42 PM 80.6 °F 80.8 °F 57.2 °F 45% 29.62 in 10.0 mi North 19.6 mph 31.1 mph N/A Thunderstorm Partly Cloudy
7:51 PM 77.9 °F - 55.9 °F 47% 29.62 in 10.0 mi North 16.1 mph - N/A Thunderstorm Scattered Clouds
8:01 PM 78.8 °F - 55.4 °F 44% 29.63 in 10.0 mi North 13.8 mph - N/A   Partly Cloudy
8:51 PM 75.9 °F - 56.8 °F 51% 29.67 in 10.0 mi NNW 11.5 mph - N/A   Clear
9:51 PM 72.9 °F - 52.0 °F 48% 29.68 in 10.0 mi NNW 12.7 mph - N/A   Clear
10:51 PM 70.9 °F - 52.0 °F 51% 29.71 in 10.0 mi NNW 10.4 mph - N/A   Clear
11:51 PM 70.0 °F - 50.9 °F 51% 29.73 in 10.0 mi NNW 12.7 mph - N/A   Clear